Location: Coopersdale
(40.3556°N, 78.9372°W)
Time: 21:21:19
(UTC+00:00)

Vanguard 1 - Visible Passes

Search period start: 21 January 2021 00:00
Search period end: 31 January 2021 00:00
Orbit: 648 x 3834 km, 34.3° (Epoch: 21 January)

Date Brightness Start Highest point End Pass type
(mag) Time Alt. Az. Time Alt. Az. Time Alt. Az.
21 Jan 12.9 00:41:40 10° W 01:02:04 48° SW 01:12:46 18° SSE visible
21 Jan 13.4 03:13:52 10° W 03:22:12 16° WSW 03:25:32 14° SW visible
21 Jan 13.1 22:35:29 10° W 22:58:57 69° SSW 23:16:01 10° ESE visible
22 Jan 13.0 01:03:31 10° W 01:22:36 40° SW 01:33:09 16° SSE visible
22 Jan 13.1 22:56:59 10° W 23:20:07 64° SSW 23:36:42 10° SE visible
23 Jan 13.2 01:25:37 10° W 01:42:55 33° SW 01:53:39 13° S visible
23 Jan 13.2 23:18:32 10° W 23:41:07 57° SSW 23:57:13 10° SE visible
24 Jan 13.4 01:48:11 10° W 02:03:05 25° SW 02:13:49 10° S visible
24 Jan 13.3 23:40:10 10° W 00:01:56 50° SSW 00:17:31 10° SE visible
25 Jan 13.6 02:11:34 10° W 02:23:08 18° SW 02:32:07 10° SSW visible
26 Jan 13.5 00:01:56 10° W 00:22:35 43° SW 00:37:32 10° SSE visible
26 Jan 13.8 02:37:11 10° WSW 02:43:05 12° WSW 02:48:15 10° SW visible
27 Jan 13.6 00:23:57 10° W 00:43:02 35° SW 00:57:11 10° SSE visible
27 Jan 13.5 22:17:50 10° W 22:40:16 58° SSW 22:58:59 10° SE visible
28 Jan 13.7 00:46:23 10° W 01:03:19 28° SW 01:16:21 10° S visible
28 Jan 13.7 22:39:21 10° W 23:01:12 51° SSW 23:19:19 10° SE visible
29 Jan 13.9 01:09:34 10° W 01:23:28 21° SW 01:34:44 10° SSW visible
29 Jan 13.8 23:01:00 10° W 23:21:58 44° SW 23:39:21 10° SSE visible
30 Jan 14.1 01:34:24 10° W 01:43:33 14° WSW 01:51:31 10° SSW visible
30 Jan 13.9 23:22:54 10° W 23:42:33 36° SW 23:59:00 10° SSE visible
